This is the latest recevied weather packets stored in our database for station/object KC1OEK-13. If no packets are shown the sender has not sent any weather packets the latest 10 day(s).
| Time | Temp. | Humidity | Pressure | Rain* | Wind** | Luminosity | Snow |
|---|---|---|---|---|---|---|---|
| 1788126621 | 23.89° C | 83% | 1020 hPa | 0 mm | - | 41 W/m² | - |
| 1788126316 | 23.89° C | 82% | 1019.8 hPa | 0 mm | - | 59 W/m² | - |
| 1788126010 | 23.89° C | 83% | 1019.8 hPa | 0 mm | - | 103 W/m² | - |
| 1788125705 | 23.33° C | 83% | 1020 hPa | 0 mm | - | 108 W/m² | - |
| 1788125401 | 23.33° C | 82% | 1019.8 hPa | 0 mm | - | 71 W/m² | - |
| 1788125096 | 23.89° C | 82% | 1019.6 hPa | 0 mm | - | 55 W/m² | - |
| 1788124795 | 23.89° C | 80% | 1019.9 hPa | 0 mm | - | 74 W/m² | - |
| 1788124490 | 23.89° C | 80% | 1020 hPa | 0 mm | - | 94 W/m² | - |
| 1788124186 | 23.89° C | 80% | 1019.8 hPa | 0 mm | - | 76 W/m² | - |
| 1788123886 | 24.44° C | 78% | 1019.9 hPa | 0 mm | - | 89 W/m² | - |
| 1788123583 | 24.44° C | 77% | 1019.9 hPa | 0 mm | - | 117 W/m² | - |
| 1788123282 | 25° C | 76% | 1019.9 hPa | 0 mm | - | 126 W/m² | - |
| 1788122978 | 25° C | 76% | 1019.8 hPa | 0 mm | - | 164 W/m² | - |
| 1788122677 | 26.11° C | 74% | 1019.8 hPa | 0 mm | - | 390 W/m² | - |
| 1788122372 | 26.11° C | 71% | 1019.9 hPa | 0 mm | - | 410 W/m² | - |
| 1788122068 | 26.11° C | 72% | 1020 hPa | 0 mm | - | 429 W/m² | - |
| 1788121767 | 26.11° C | 73% | 1020.1 hPa | 0 mm | - | 458 W/m² | - |
| 1788121462 | 24.44° C | 75% | 1020.2 hPa | 0 mm | - | 454 W/m² | - |
| 1788121159 | 24.44° C | 75% | 1020.2 hPa | 0 mm | - | 239 W/m² | - |
| 1788120852 | 24.44° C | 75% | 1020.1 hPa | 0 mm | - | 179 W/m² | - |
| 1788120548 | 24.44° C | 73% | 1020.3 hPa | 0 mm | - | 170 W/m² | - |
| 1788120248 | 24.44° C | 72% | 1020.3 hPa | 0 mm | - | 138 W/m² | - |
| 1788119942 | 25° C | 73% | 1020.2 hPa | 0 mm | - | 107 W/m² | - |
| 1788119642 | 25° C | 73% | 1020.1 hPa | 0 mm | - | 163 W/m² | - |
| 1788119335 | 25° C | 70% | 1020.3 hPa | 0 mm | - | 197 W/m² | - |
* Rain latest hour (hover to see other rain measurements)
** Current wind speed in m/s (hover to see current wind gust speed)